TimeCST,TemperatureF,Dew PointF,Humidity,Sea Level PressureIn,VisibilityMPH,Wind Direction,Wind SpeedMPH,Gust SpeedMPH,PrecipitationIn,Events,Conditions,WindDirDegrees,DateUTC
12:53 AM,24.1,8.1,51,30.26,10.0,SSE,8.1,-,N/A,,Overcast,160,2013-01-25 06:53:00
1:40 AM,24.8,8.6,50,30.19,10.0,South,11.5,-,N/A,,Overcast,170,2013-01-25 07:40:00
1:53 AM,24.1,9.0,53,30.23,10.0,South,6.9,-,N/A,,Overcast,170,2013-01-25 07:53:00
2:53 AM,23.0,10.9,60,30.23,10.0,SSW,4.6,-,N/A,,Overcast,210,2013-01-25 08:53:00
3:53 AM,23.0,10.9,60,30.17,10.0,South,9.2,-,N/A,,Overcast,180,2013-01-25 09:53:00
4:53 AM,23.0,12.0,63,30.17,10.0,SSW,5.8,-,N/A,,Overcast,210,2013-01-25 10:53:00
5:00 AM,23.0,12.2,63,30.14,9.0,SSW,6.9,-,N/A,,Overcast,210,2013-01-25 11:00:00
5:53 AM,23.0,12.2,63,30.13,10.0,SW,4.6,-,N/A,,Overcast,230,2013-01-25 11:53:00
6:21 AM,23.0,12.2,63,30.13,10.0,SW,5.8,-,N/A,,Overcast,230,2013-01-25 12:21:00
6:53 AM,23.0,12.9,65,30.17,10.0,WSW,5.8,-,N/A,,Overcast,240,2013-01-25 12:53:00
7:40 AM,23.0,12.2,63,30.12,10.0,WSW,5.8,-,N/A,,Overcast,250,2013-01-25 13:40:00
7:53 AM,23.0,12.9,65,30.15,10.0,West,8.1,-,N/A,,Overcast,260,2013-01-25 13:53:00
8:07 AM,24.8,12.2,59,30.12,9.0,WSW,5.8,-,N/A,,Overcast,250,2013-01-25 14:07:00
8:53 AM,24.1,12.9,62,30.16,7.0,West,6.9,-,N/A,,Overcast,260,2013-01-25 14:53:00
9:53 AM,26.1,12.9,58,30.15,10.0,West,12.7,18.4,N/A,,Mostly Cloudy,280,2013-01-25 15:53:00
10:02 AM,26.6,12.2,55,30.12,9.0,West,9.2,-,N/A,,Scattered Clouds,270,2013-01-25 16:02:00
10:53 AM,30.0,12.9,49,30.13,10.0,West,12.7,-,N/A,,Clear,270,2013-01-25 16:53:00
11:53 AM,32.0,12.9,45,30.10,10.0,West,11.5,-,N/A,,Clear,280,2013-01-25 17:53:00
12:53 PM,35.1,14.0,42,30.08,10.0,WSW,16.1,21.9,N/A,,Clear,250,2013-01-25 18:53:00
1:53 PM,37.9,15.1,39,30.06,9.0,West,17.3,24.2,N/A,,Clear,280,2013-01-25 19:53:00
2:53 PM,39.9,17.1,40,30.06,9.0,West,17.3,24.2,N/A,,Clear,270,2013-01-25 20:53:00
3:53 PM,41.0,17.1,38,30.07,8.0,WNW,11.5,21.9,N/A,,Clear,290,2013-01-25 21:53:00
4:53 PM,37.9,18.0,45,30.09,10.0,WNW,12.7,-,N/A,,Clear,300,2013-01-25 22:53:00
5:53 PM,35.1,19.9,54,30.11,10.0,NW,9.2,-,N/A,,Clear,310,2013-01-25 23:53:00
6:53 PM,32.0,21.0,64,30.13,10.0,NW,6.9,-,N/A,,Clear,310,2013-01-26 00:53:00
7:53 PM,30.9,21.0,67,30.16,10.0,NW,5.8,-,N/A,,Clear,310,2013-01-26 01:53:00
8:53 PM,30.0,21.0,69,30.19,10.0,NNW,15.0,18.4,N/A,,Clear,330,2013-01-26 02:53:00
9:53 PM,24.1,10.9,57,30.23,10.0,NNW,15.0,23.0,N/A,,Clear,340,2013-01-26 03:53:00
10:53 PM,21.0,7.0,55,30.27,10.0,NNW,10.4,18.4,N/A,,Clear,330,2013-01-26 04:53:00
11:53 PM,19.0,6.1,57,30.29,10.0,NNW,5.8,-,N/A,,Clear,330,2013-01-26 05:53:00